TimeEST,TemperatureF,Dew PointF,Humidity,Sea Level PressureIn,VisibilityMPH,Wind Direction,Wind SpeedMPH,Gust SpeedMPH,PrecipitationIn,Events,Conditions,WindDirDegrees,DateUTC
12:56 AM,68.0,63.0,84,30.04,10.0,South,11.5,-,N/A,,Partly Cloudy,180,2014-02-21 05:56:00
1:56 AM,68.0,63.0,84,30.03,10.0,SSW,11.5,-,N/A,,Partly Cloudy,200,2014-02-21 06:56:00
2:56 AM,69.1,64.0,84,30.02,10.0,SSW,16.1,21.9,N/A,,Mostly Cloudy,210,2014-02-21 07:56:00
3:56 AM,66.9,62.1,84,30.02,10.0,SSW,11.5,-,N/A,,Mostly Cloudy,210,2014-02-21 08:56:00
4:56 AM,66.9,63.0,87,29.99,10.0,SSW,15.0,-,N/A,,Mostly Cloudy,200,2014-02-21 09:56:00
5:46 AM,68.0,64.4,88,30.00,10.0,SSW,19.6,26.5,N/A,,Overcast,200,2014-02-21 10:46:00
5:56 AM,68.0,64.0,87,30.00,10.0,SSW,15.0,-,N/A,,Overcast,200,2014-02-21 10:56:00
6:40 AM,66.2,64.4,94,29.99,10.0,SSW,17.3,25.3,N/A,,Mostly Cloudy,210,2014-02-21 11:40:00
6:56 AM,68.0,64.0,87,30.00,10.0,SSW,18.4,32.2,N/A,,Mostly Cloudy,210,2014-02-21 11:56:00
7:03 AM,68.0,64.4,88,30.00,10.0,SSW,19.6,26.5,N/A,,Mostly Cloudy,200,2014-02-21 12:03:00
7:56 AM,69.1,64.0,84,30.00,10.0,SSW,24.2,27.6,N/A,,Mostly Cloudy,200,2014-02-21 12:56:00
8:45 AM,69.8,64.4,83,30.00,10.0,SSW,18.4,26.5,N/A,,Mostly Cloudy,200,2014-02-21 13:45:00
8:56 AM,71.1,64.9,81,30.00,10.0,SSW,21.9,26.5,N/A,,Mostly Cloudy,200,2014-02-21 13:56:00
9:56 AM,71.1,64.9,81,29.99,10.0,SSW,24.2,31.1,N/A,,Mostly Cloudy,200,2014-02-21 14:56:00
10:56 AM,70.0,66.0,87,29.98,5.0,SSW,21.9,33.4,0.00,,Overcast,210,2014-02-21 15:56:00
11:02 AM,69.8,66.2,88,29.98,4.0,SSW,23.0,33.4,N/A,,Overcast,210,2014-02-21 16:02:00
11:12 AM,69.8,66.2,88,29.99,1.0,SW,20.7,27.6,0.00,Rain,Light Rain,220,2014-02-21 16:12:00
11:50 AM,69.8,64.4,83,29.98,7.0,SW,20.7,28.8,0.00,,Overcast,230,2014-02-21 16:50:00
11:56 AM,69.1,64.9,87,29.98,7.0,SW,21.9,29.9,0.00,,Overcast,230,2014-02-21 16:56:00
12:10 PM,69.8,64.4,83,29.98,10.0,SW,13.8,26.5,N/A,,Overcast,220,2014-02-21 17:10:00
12:27 PM,69.8,64.4,83,29.99,9.0,WSW,24.2,33.4,0.00,Rain,Light Rain,250,2014-02-21 17:27:00
12:56 PM,66.0,61.0,84,29.97,3.0,West,9.2,-,0.05,Rain,Light Rain,260,2014-02-21 17:56:00
1:01 PM,64.4,60.8,88,29.97,3.0,WSW,8.1,-,0.00,Rain,Light Rain,240,2014-02-21 18:01:00
1:56 PM,64.9,61.0,87,29.90,10.0,SSW,4.6,-,0.03,,Mostly Cloudy,200,2014-02-21 18:56:00
2:56 PM,66.0,60.1,81,29.93,10.0,WSW,11.5,-,N/A,,Mostly Cloudy,240,2014-02-21 19:56:00
3:26 PM,66.2,60.8,83,29.94,10.0,WSW,13.8,-,N/A,,Mostly Cloudy,240,2014-02-21 20:26:00
3:56 PM,66.9,60.1,79,29.93,10.0,WSW,17.3,23.0,N/A,,Overcast,250,2014-02-21 20:56:00
4:56 PM,68.0,60.1,76,29.93,10.0,WSW,12.7,-,N/A,,Mostly Cloudy,250,2014-02-21 21:56:00
5:10 PM,69.8,60.8,73,29.94,10.0,West,12.7,-,N/A,,Scattered Clouds,260,2014-02-21 22:10:00
5:56 PM,66.9,60.1,79,29.96,10.0,West,8.1,-,N/A,,Mostly Cloudy,260,2014-02-21 22:56:00
6:38 PM,66.2,60.8,83,29.98,10.0,West,6.9,-,N/A,,Mostly Cloudy,270,2014-02-21 23:38:00
6:56 PM,66.0,59.0,78,29.99,10.0,West,10.4,-,N/A,,Mostly Cloudy,260,2014-02-21 23:56:00
7:56 PM,64.0,57.0,78,30.01,10.0,West,4.6,-,N/A,,Partly Cloudy,260,2014-02-22 00:56:00
8:56 PM,62.1,55.9,80,30.03,10.0,WSW,4.6,-,N/A,,Scattered Clouds,250,2014-02-22 01:56:00
9:56 PM,60.1,55.0,83,30.05,10.0,WSW,3.5,-,N/A,,Scattered Clouds,250,2014-02-22 02:56:00
10:56 PM,57.0,51.1,81,30.06,10.0,WSW,4.6,-,N/A,,Clear,250,2014-02-22 03:56:00
11:56 PM,54.0,48.9,83,30.06,10.0,Calm,Calm,-,N/A,,Clear,0,2014-02-22 04:56:00